[[{"header":{"parameterUnit":"m.s-1","parameterCategory":1,"la1":30.2991,"la2":30.254,"lo1":-89.0895,"lo2":-89.0444,"dy":0.0017,"dx":0.0017,"nx":28,"ny":28,"refTime":"2025-09-15T21:00:00:Z","depth":0,"parameterNumber":2,"parameterNumberName":"U-component_of_WINDS"},"data":[0,0,0,0,0,0,0,0,0,0,0,0,0,0,0,0,0,0,0,0,0,0,0,0,0,0,0,0,0,0,0,0,0,0,0,0,0,0,0,0,0,0,0,0,0,0,0,0,0,0,0,0,0,0,0,0,0,0,0.6513,0.6513,0,0.6513,0.6513,0.6513,0.6555,0.6556,0.6557,0.6558,0.6554,0.6553,0.6552,0,0,0,0,0,0,0,0,0,0,0,0,0,0.6549,0.6548,0.6513,0.6513,0.6513,0.6513,0.6513,0.6513,0.6555,0.6556,0.6557,0.6559,0.6555,0.6553,0.6552,0,0,0,0,0,0,0,0,0,0,0,0,0,0.6539,0.6548,0.6513,0.6534,0.6536,0.6513,0.6513,0.6512,0.6554,0.6556,0.6558,0.6559,0.6555,0.6553,0.6552,0.6507,0,0,0.6546,0.6546,0,0,0,0,0,0,0,0,0.654,0.6538,0.6531,0.6533,0.6535,0.6536,0.6524,0.6511,0.6554,0.6547,0.6558,0.656,0.6546,0.6545,0.6542,0.6507,0.6507,0.6546,0.6545,0.6544,0.6544,0,0,0,0,0,0,0,0.654,0.6538,0.6513,0.6531,0.6533,0.6543,0.6544,0.6521,0.6537,0.6548,0.6551,0.6551,0.6548,0.6543,0.6542,0.6507,0.6546,0.6545,0.6544,0.6543,0.6437,0.6436,0,0,0,0,0,0,0.6538,0.6538,0.6513,0.6513,0.6542,0.6541,0.6542,0.6533,0.6538,0.654,0.6549,0.6553,0.6545,0.6544,0.6542,0.6491,0.6544,0.6543,0.6542,0.6439,0.6437,0.6435,0,0,0,0,0,0,0.6539,0.6536,0.6513,0.6526,0.6524,0.6539,0.6529,0.6533,0.6528,0.6539,0.6541,0.6542,0.6547,0.6544,0.6516,0.6491,0.6542,0.654,0.6441,0.6438,0.6436,0.6388,0,0,0,0,0,0,0.654,0.6536,0.6519,0.6526,0.6523,0.6487,0.6528,0.6531,0.6525,0.653,0.6532,0.6534,0.6548,0.6518,0.6514,0.649,0.6539,0.6443,0.644,0.6437,0.6392,0.6384,0.6378,0,0,0,0,0,0.6541,0.6504,0.6518,0.6515,0.6503,0.6486,0.6484,0.6501,0.6523,0.6507,0.6514,0.6534,0.6495,0.6515,0.6511,0.6486,0.6445,0.6441,0.6437,0.6395,0.6386,0.6378,0,0,0,0,0,0,0.6493,0.6506,0.6521,0.6485,0.6484,0.6493,0.6472,0.6491,0.6482,0.6487,0.6508,0.6508,0.6476,0.6478,0.65,0.6444,0.6474,0.6469,0.6443,0.6435,0.6427,0.6427,0.6538,0,0,0,0,0,0.6478,0.6464,0.6476,0.6443,0.6442,0.6457,0.645,0.6464,0.6463,0.6463,0.6468,0.6465,0.6453,0.6444,0.6433,0.6393,0.6394,0.6374,0.6366,0.636,0.6356,0.6336,0.6327,0.6422,0.6422,0.6422,0,0,0.6447,0.6453,0.6442,0.6434,0.6435,0.6419,0.6456,0.6438,0.6426,0.6459,0.6434,0.6437,0.6436,0.6403,0.6388,0.6403,0.633,0.6355,0.635,0.6349,0.6331,0.6322,0.6314,0.6419,0.642,0.642,0,0,0.6383,0.6386,0.636,0.6361,0.6362,0.6373,0.6367,0.6373,0.6378,0.6353,0.6378,0.6364,0.6341,0.634,0.6337,0.6275,0.6294,0.6271,0.6233,0.6214,0.6206,0.62,0.6179,0.6171,0.6266,0.6266,0.6266,0,0.6344,0.6323,0.6344,0.6325,0.6321,0.6352,0.6326,0.6325,0.6322,0.6319,0.6336,0.631,0.6312,0.6279,0.6264,0.626,0.6254,0.627,0.6206,0.62,0.6194,0.6174,0.6166,0.6263,0.6264,0.6264,0.6264,0,0.6275,0.626,0.6239,0.6238,0.6231,0.6208,0.6226,0.6217,0.6232,0.6241,0.6216,0.6219,0.621,0.6203,0.6216,0.6173,0.6182,0.6202,0.6233,0.6182,0.6163,0.6156,0.6259,0.6261,0.6261,0.6262,0,0,0.6179,0.6192,0.6184,0.6184,0.6189,0.6178,0.6157,0.615,0.6142,0.6139,0.6122,0.6104,0.6124,0.612,0.6134,0.6117,0.6069,0.614,0.614,0.6127,0.6022,0.6007,0.5998,0.6082,0.6081,0.608,0.6023,0,0.6117,0.6084,0.6103,0.6066,0.6053,0.6084,0.6066,0.6067,0.6075,0.6065,0.6074,0.6061,0.6087,0.6085,0.607,0.6078,0.6049,0.6083,0.6067,0.6066,0.6066,0.5988,0.5971,0.5917,0.6015,0.6014,0.6013,0,0.6041,0.6037,0.5999,0.6009,0.6004,0.5988,0.5984,0.5974,0.5976,0.5983,0.598,0.5999,0.5979,0.601,0.5984,0.6007,0.6002,0.6005,0.6003,0.6002,0.6036,0.5985,0.59,0.5892,0.6002,0.6003,0.6004,0,0.5975,0.5961,0.5937,0.5936,0.5947,0.5935,0.5938,0.5943,0.5938,0.5934,0.5931,0.5925,0.5921,0.5916,0.5932,0.5953,0.5904,0.5936,0.5909,0.5909,0.5897,0.5897,0.581,0.5893,0.5894,0.5894,0.5894,0,0.5904,0.588,0.5908,0.5893,0.5867,0.589,0.5864,0.587,0.5874,0.5861,0.5887,0.5874,0.5897,0.5887,0.59,0.5876,0.5874,0.588,0.5883,0.5877,0.5877,0.5874,0.5878,0.5892,0.5892,0.5893,0.5893,0,0.5825,0.5843,0.5819,0.5832,0.5835,0.5816,0.5827,0.5813,0.5825,0.5808,0.5805,0.5822,0.5812,0.5828,0.5819,0.5827,0.5796,0.5805,0.5795,0.5798,0.577,0.5773,0.5678,0.5667,0.5757,0.5757,0.5756,0,0.5779,0.5761,0.5774,0.5768,0.577,0.576,0.5756,0.5778,0.5773,0.5776,0.5762,0.5754,0.5749,0.573,0.5741,0.5735,0.5744,0.5712,0.5743,0.5738,0.5744,0.5745,0.5744,0.5705,0.5704,0.5703,0.5702,0,0.5695,0.5705,0.5699,0.5696,0.5691,0.5689,0.5689,0.5683,0.5707,0.5699,0.569,0.5686,0.5678,0.5669,0.5666,0.567,0.569,0.5692,0.5686,0.5679,0.5675,0.5677,0.5777,0.5694,0.5695,0.5695,0.5696,0.5696,0.5631,0.5618,0.5625,0.5617,0.5621,0.5621,0.561,0.5621,0.5613,0.5609,0.5623,0.561,0.5615,0.5613,0.5615,0.5605,0.5619,0.561,0.5607,0.5605,0.5601,0.5677,0.5604,0.5605,0.5605,0.5605,0.5605,0,0.5549,0.5556,0.5549,0.5549,0.5544,0.5565,0.5567,0.5561,0.555,0.5553,0.5548,0.5538,0.5531,0.5542,0.5537,0.5527,0.5536,0.5525,0.5526,0.5526,0.5588,0.5594,0.5518,0.5518,0.5518,0.5518,0.5518,0.5518,0.5505,0.5484,0.5496,0.5477,0.5484,0.5473,0.5472,0.5473,0.5476,0.5463,0.5458,0.5466,0.5473,0.5469,0.5464,0.5468,0.5464,0.545,0.5456,0.5513,0.5522,0.553,0.5536,0.5449,0.5449,0.5396,0.5396,0.5395]},{"header":{"parameterUnit":"m.s-1","parameterCategory":1,"la1":30.2991,"la2":30.254,"lo1":-89.0895,"lo2":-89.0444,"dy":0.0017,"dx":0.0017,"nx":28,"ny":28,"refTime":"2025-09-15T21:00:00:Z","depth":0,"parameterNumber":3,"parameterNumberName":"V-component_of_WINDS"},"data":[0,0,0,0,0,0,0,0,0,0,0,0,0,0,0,0,0,0,0,0,0,0,0,0,0,0,0,0,0,0,0,0,0,0,0,0,0,0,0,0,0,0,0,0,0,0,0,0,0,0,0,0,0,0,0,0,0,0,-1.1053,-1.1054,0,-1.1128,-1.1129,-1.113,-1.1122,-1.112,-1.1119,-1.1118,-1.1196,-1.1199,-1.1202,0,0,0,0,0,0,0,0,0,0,0,0,0,-1.0905,-1.0907,-1.1053,-1.1054,-1.1055,-1.1128,-1.1129,-1.113,-1.1122,-1.112,-1.1119,-1.1118,-1.1195,-1.1198,-1.1202,0,0,0,0,0,0,0,0,0,0,0,0,0,-1.0973,-1.0908,-1.1053,-1.106,-1.1061,-1.1128,-1.1129,-1.1131,-1.1122,-1.112,-1.1119,-1.1117,-1.1193,-1.1198,-1.1203,-1.1268,0,0,-1.1217,-1.1219,0,0,0,0,0,0,0,0,-1.097,-1.0979,-1.1058,-1.1059,-1.1061,-1.1114,-1.1105,-1.1177,-1.1123,-1.1099,-1.1118,-1.1116,-1.117,-1.1177,-1.1195,-1.1272,-1.1275,-1.1218,-1.1221,-1.1223,-1.1224,0,0,0,0,0,0,0,-1.0965,-1.0976,-1.1083,-1.1059,-1.1061,-1.106,-1.1067,-1.1119,-1.1144,-1.1101,-1.1101,-1.1109,-1.1171,-1.119,-1.1196,-1.1276,-1.1218,-1.1222,-1.1225,-1.1227,-1.1412,-1.1414,0,0,0,0,0,0,-1.0958,-1.0972,-1.1081,-1.1085,-1.101,-1.1064,-1.1072,-1.1099,-1.1143,-1.1148,-1.1111,-1.1109,-1.1183,-1.1191,-1.1199,-1.1279,-1.1223,-1.1227,-1.123,-1.141,-1.1412,-1.1415,0,0,0,0,0,0,-1.0955,-1.0968,-1.1078,-1.1028,-1.1042,-1.1068,-1.1098,-1.1101,-1.1121,-1.1151,-1.1155,-1.1126,-1.1182,-1.1192,-1.1251,-1.1282,-1.1229,-1.1234,-1.1407,-1.1411,-1.1413,-1.144,0,0,0,0,0,0,-1.0951,-1.0967,-1.0992,-1.1029,-1.1045,-1.1128,-1.11,-1.1104,-1.1129,-1.1127,-1.1166,-1.1171,-1.1181,-1.1244,-1.1256,-1.1287,-1.1237,-1.1405,-1.1409,-1.1413,-1.1436,-1.1443,-1.145,0,0,0,0,0,-1.0945,-1.0996,-1.0993,-1.1006,-1.1076,-1.113,-1.1139,-1.1149,-1.1131,-1.1157,-1.1176,-1.117,-1.1276,-1.125,-1.1263,-1.1297,-1.1403,-1.1408,-1.1412,-1.1433,-1.1442,-1.1449,0,0,0,0,0,0,-1.0961,-1.1001,-1.0998,-1.1062,-1.1093,-1.1128,-1.1161,-1.1158,-1.1195,-1.1191,-1.1203,-1.1212,-1.1272,-1.129,-1.126,-1.1363,-1.1337,-1.1345,-1.1349,-1.1357,-1.1364,-1.1358,-1.1241,0,0,0,0,0,-1.0972,-1.1012,-1.1045,-1.1098,-1.1114,-1.1135,-1.1158,-1.1164,-1.1196,-1.1209,-1.1233,-1.1265,-1.1306,-1.1332,-1.1372,-1.1439,-1.1448,-1.1468,-1.1475,-1.148,-1.1487,-1.1525,-1.1535,-1.143,-1.143,-1.143,0,0,-1.0995,-1.1022,-1.1046,-1.1102,-1.1126,-1.1168,-1.1145,-1.119,-1.1222,-1.1216,-1.1273,-1.1292,-1.1328,-1.1392,-1.1421,-1.1409,-1.1518,-1.1486,-1.149,-1.1494,-1.1531,-1.154,-1.1549,-1.1433,-1.1432,-1.1432,0,0,-1.1059,-1.1082,-1.113,-1.1155,-1.1192,-1.1206,-1.1218,-1.1254,-1.1266,-1.1324,-1.1321,-1.1358,-1.1428,-1.1455,-1.1477,-1.1552,-1.1548,-1.1564,-1.1599,-1.1636,-1.1644,-1.1652,-1.1679,-1.1689,-1.1571,-1.1571,-1.1571,0,-1.1083,-1.1145,-1.1155,-1.12,-1.1225,-1.1222,-1.1271,-1.1295,-1.1343,-1.1361,-1.1347,-1.1435,-1.1459,-1.153,-1.1548,-1.1566,-1.158,-1.156,-1.1642,-1.165,-1.1657,-1.1683,-1.1693,-1.1573,-1.1572,-1.1572,-1.1572,0,-1.1173,-1.1217,-1.1251,-1.1298,-1.1326,-1.1373,-1.1391,-1.1419,-1.1422,-1.1437,-1.1497,-1.1526,-1.1571,-1.1588,-1.1592,-1.166,-1.1651,-1.1639,-1.1614,-1.1668,-1.1693,-1.1704,-1.1575,-1.1575,-1.1574,-1.1574,0,0,-1.1249,-1.1301,-1.1313,-1.1335,-1.1376,-1.1411,-1.1458,-1.1502,-1.1527,-1.156,-1.1601,-1.166,-1.165,-1.1676,-1.1682,-1.1714,-1.1773,-1.1699,-1.17,-1.1712,-1.1851,-1.186,-1.1871,-1.177,-1.1772,-1.1774,-1.1848,0,-1.1317,-1.14,-1.1411,-1.1485,-1.1526,-1.1524,-1.1565,-1.1595,-1.1611,-1.1649,-1.1666,-1.1709,-1.1691,-1.1707,-1.1739,-1.1759,-1.1801,-1.1754,-1.1809,-1.1811,-1.18,-1.1884,-1.1894,-1.1963,-1.1858,-1.1859,-1.1861,0,-1.1407,-1.1444,-1.1522,-1.1559,-1.1577,-1.1614,-1.1656,-1.1691,-1.1726,-1.1735,-1.1765,-1.1767,-1.1817,-1.1789,-1.1858,-1.1825,-1.1849,-1.1862,-1.1865,-1.1871,-1.1839,-1.1893,-1.1985,-1.1995,-1.1876,-1.1875,-1.1874,0,-1.1456,-1.1525,-1.1581,-1.1599,-1.1643,-1.167,-1.1689,-1.1722,-1.1748,-1.1785,-1.1803,-1.1845,-1.1868,-1.1901,-1.1915,-1.1893,-1.1984,-1.1957,-1.1994,-1.1993,-1.2013,-1.2012,-1.211,-1.2027,-1.2027,-1.2026,-1.2026,0,-1.1531,-1.158,-1.1603,-1.1638,-1.1692,-1.1704,-1.1758,-1.1776,-1.1806,-1.1845,-1.1845,-1.1881,-1.1897,-1.1937,-1.1948,-1.2004,-1.2014,-1.2024,-1.2026,-1.2024,-1.2023,-1.204,-1.2036,-1.2029,-1.2029,-1.2028,-1.2028,0,-1.1595,-1.1612,-1.1674,-1.171,-1.1721,-1.176,-1.1791,-1.1825,-1.1841,-1.189,-1.1902,-1.1927,-1.1973,-1.199,-1.2046,-1.2054,-1.2119,-1.2117,-1.2107,-1.2108,-1.2144,-1.2141,-1.2258,-1.2274,-1.2179,-1.218,-1.218,0,-1.1642,-1.168,-1.1721,-1.1747,-1.1767,-1.1809,-1.1836,-1.1849,-1.1878,-1.192,-1.195,-1.1995,-1.2033,-1.2107,-1.213,-1.2173,-1.2173,-1.2211,-1.2179,-1.2176,-1.2174,-1.2172,-1.2177,-1.2217,-1.2218,-1.2218,-1.2219,0,-1.1725,-1.1732,-1.1771,-1.1814,-1.1846,-1.188,-1.1913,-1.1934,-1.1953,-1.1985,-1.2032,-1.2061,-1.2119,-1.2164,-1.2209,-1.2229,-1.2228,-1.2229,-1.224,-1.2238,-1.2231,-1.2237,-1.2124,-1.2226,-1.2225,-1.2225,-1.2224,-1.2224,-1.1783,-1.1816,-1.1851,-1.1894,-1.1921,-1.1952,-1.1986,-1.2006,-1.2045,-1.2093,-1.2099,-1.215,-1.2184,-1.2244,-1.2266,-1.2307,-1.2297,-1.2312,-1.2316,-1.232,-1.2323,-1.2224,-1.2315,-1.2315,-1.2314,-1.2314,-1.2314,0,-1.1866,-1.1889,-1.1929,-1.1975,-1.201,-1.2005,-1.2042,-1.2071,-1.2116,-1.2148,-1.2185,-1.224,-1.2285,-1.2311,-1.2356,-1.2384,-1.2384,-1.2395,-1.2394,-1.2399,-1.2329,-1.2316,-1.2394,-1.2394,-1.2394,-1.2394,-1.2394,-1.2394,-1.1914,-1.1971,-1.1982,-1.2052,-1.2074,-1.2124,-1.2145,-1.2174,-1.22,-1.2262,-1.2299,-1.2316,-1.2346,-1.2394,-1.2435,-1.2441,-1.2458,-1.247,-1.2476,-1.2411,-1.2403,-1.2395,-1.2383,-1.2474,-1.2474,-1.2542,-1.2543,-1.2543]}]]